Location: Aciu?a
(46.2833°N, 22.4500°E)
Time: 07:59:01
(UTC+00:00)

Cosmos 1455 - Pass Details

Date: 03 June 2022
Orbit: 492 x 514 km, 82.5° (Epoch: 02 July)

Event Time Altitude Azimuth Distance (km) Brightness Sun altitude
Rises 21:59:16 0° 11° (N) 2,586 7.0 -21.0°
Reaches altitude 10° 22:02:49 10° 47° (NE) 1,698 5.3 -21.1°
Maximum altitude 22:04:01 11° 66° (ENE) 1,618 4.9 -21.1°
Drops below altitude 10° 22:05:14 10° 85° (E) 1,696 4.8 -21.1°
Enters shadow 22:05:29 10° 89° (E) 1,732 4.8 -21.1°
